User: anonymous   Login
Location: Theydon Bois
(51.6750°N, 0.1050°E)
Time: 10:22:18
(UTC+01:00)
Language:

Cosmos 2366 rocket - Orbit

View from above orbital plane
View from above orbital plane
View from above satellite
View from above satellite

Ground track
Ground track

The orbit data is extracted from the following two-line orbital elements,

1 25893U 99045B   18174.79510782 +.00000049 +00000-0 +33785-4 0  9997
2 25893 082.9273 107.8938 0029616 133.0181 255.0726 13.76521782945790
Epoch (UTC): 23 June 2018 19:04:57
Eccentricity: 0.0029616
inclination: 82.9273°
perigee height: 954 km
apogee height: 998 km
right ascension of ascending node: 107.8938°
argument of perigee: 133.0181°
revolutions per day: 13.76521782
mean anomaly at epoch: 255.0726°
orbit number at epoch: 94579

The dashed part of the orbit path shows where the satellite is in the earth's shadow,  

DLR